Creek Data

    Home     View Charts     View Raw Data     Messages

ID Distance Battery Voltage Battery Current Internal Temp Internal Humidity External Temp Solar Input rssi snr Time Stamp Record
68122 14.7 3.72 0 64 49 61 5.1 -67 8 03/06/2026 11:30 AM 50984
68121 14.7 3.77 0 63 49 60 5.1 -67 7 03/06/2026 11:15 AM 50983
68120 14.7 3.72 0 63 48 60 5.1 -66 8 03/06/2026 11:00 AM 50982
68119 14.8 3.72 0 63 48 61 5.1 -67 7 03/06/2026 10:45 AM 50981
68118 14.7 3.72 0 62 48 60 5.1 -67 8 03/06/2026 10:30 AM 50980
68117 14.8 3.73 0 60 48 59 5.1 -68 7 03/06/2026 10:15 AM 50979
68116 14.7 3.72 0 57 49 56 5.1 -67 8 03/06/2026 09:45 AM 50977
68115 14.8 3.72 0 57 49 55 5.1 -67 8 03/06/2026 09:30 AM 50976
68114 14.7 3.72 0 56 49 55 5.1 -66 8 03/06/2026 09:15 AM 50975
68113 14.8 3.72 0 55 49 55 5.1 -66 8 03/06/2026 09:00 AM 50974
68112 14.7 3.72 0 54 49 54 5.1 -67 8 03/06/2026 08:45 AM 50973
68111 14.7 3.72 0 53 49 53 5.1 -69 7 03/06/2026 08:30 AM 50972
68110 14.7 3.72 0 52 49 53 5.1 -68 8 03/06/2026 08:15 AM 50971
68109 14.6 3.91 0 50 50 52 5.1 -67 8 03/06/2026 08:00 AM 50970
68108 14.6 3.82 0 49 50 51 5.1 -68 7 03/06/2026 07:45 AM 50969
68107 14.6 3.70 0 48 51 49 5.1 -69 8 03/06/2026 07:30 AM 50968
68106 14.6 3.78 15 47 51 49 4.5 -69 8 03/06/2026 07:15 AM 50967
68105 14.6 3.86 0 47 51 48 4.5 -67 9 03/06/2026 07:00 AM 50966
68104 14.6 3.74 0 47 51 48 4.5 -69 8 03/06/2026 06:45 AM 50965
68103 14.5 3.52 -7 47 52 48 3.2 -68 9 03/06/2026 06:30 AM 50964
68102 14.6 3.53 -5 47 52 48 0.8 -67 9 03/06/2026 06:15 AM 50963
68101 14.5 3.53 -5 47 52 48 0 -68 9 03/06/2026 06:00 AM 50962
68100 14.6 3.53 -5 48 52 49 0.1 -68 9 03/06/2026 05:45 AM 50961
68099 14.6 3.54 -5 48 52 49 0.1 -67 8 03/06/2026 05:30 AM 50960
68098 14.5 3.53 -5 48 52 49 0 -68 9 03/06/2026 05:15 AM 50959